Location: Azul
(36.7830°S, 59.8500°W)
Time: 16:33:35
(UTC-03:00)

ISS - Pass Details

Date: 03 March 2021
Orbit: 417 x 422 km, 51.6° (Epoch: 26 February)

Event Time Altitude Azimuth Distance (km) Brightness Sun altitude
Rises 21:57:27 0° 239° (WSW) 2,398 1.4 -27.5°
Reaches altitude 10° 21:59:44 10° 250° (WSW) 1,525 0.0 -27.8°
Enters shadow 22:01:01 19° 265° (W) 1,103 -1.0 -28.1°
